Location: Batang Balui
(2.7000°N, 113.7833°E)
Time: 00:08:11
(UTC+00:00)

VEP-3 - Pass Details

Date: 03 December 2021
Orbit: 1054 x 33691 km, 24.2° (Epoch: 27 January)

Event Time Altitude Azimuth Distance (km) Brightness Sun altitude
Rises 10:54:10 0° 251° (WSW) 4,785 8.4 -10.1°
Reaches altitude 10° 10:57:29 10° 255° (WSW) 3,207 6.7 -10.9°
Maximum altitude 11:03:21 60° 337° (NNW) 1,195 3.0 -12.3°
Enters shadow 11:08:49 16° 55° (NE) 3,089 4.5 -13.5°
